カタログに戻る

STARLINK-35094

運用中通信SSO
NORAD 65395·PAYLOAD·🇺🇸 United States

打ち上げ Aug 30, 2025 から Vandenberg Space Force Base

Loading…

次のパス (今後24時間)

TLE

最新Source: CelesTrak SupGP

元期: Sep 14, 2026, 14:37 UTC

1 65395C 25191S   26257.60951389  .00032578  00000+0  10114-2 0  2579
2 65395  97.2844 123.7894 0002061  88.1028 169.9894 15.33417223    12

AllMySatでSTARLINK-35094をリアルタイム追跡

Download on the App Store